| time (UTC) | temp C | wind direction | speed KPH | gust KPH | rain 1hr cm | rain 24hr cm | rain mn cm | humidity % | barometer mb |
| 20260506233016 | 5 | 250 | 3.2 | 11.3 | 0.00 | 2.29 | 2.26 | 73 | 1018.5 |
| 20260506232505 | 4 | 159 | 4.8 | 11.3 | 0.03 | 2.29 | 2.26 | 68 | 1018.6 |
| 20260506232010 | 4 | 202 | 1.6 | 9.7 | 0.03 | 2.29 | 2.26 | 70 | 1018.6 |
| 20260506231523 | 4 | 101 | 3.2 | 9.7 | 0.03 | 2.29 | 2.26 | 71 | 1018.5 |
| 20260506231010 | 4 | 157 | 1.6 | 9.7 | 0.05 | 2.29 | 2.26 | 72 | 1018.3 |
| 20260506230510 | 3 | 139 | 3.2 | 9.7 | 0.08 | 2.29 | 2.26 | 71 | 1018.2 |
| 20260506230010 | 3 | 115 | 3.2 | 9.7 | 0.08 | 2.29 | 2.26 | 71 | 1018.3 |
| 20260506225508 | 4 | 157 | 1.6 | 6.4 | 0.10 | 2.29 | 2.26 | 73 | 1018.4 |
| 20260506225011 | 4 | 195 | 1.6 | 6.4 | 0.13 | 2.29 | 2.26 | 72 | 1018.6 |
| 20260506224517 | 4 | 105 | 3.2 | 8.0 | 0.15 | 2.29 | 2.26 | 70 | 1018.6 |
| 20260506224009 | 4 | 148 | 1.6 | 11.3 | 0.18 | 2.29 | 2.26 | 71 | 1018.6 |
| 20260506223510 | 4 | 163 | 1.6 | 8.0 | 0.20 | 2.29 | 2.26 | 74 | 1018.8 |
| 20260506223025 | 4 | 108 | 1.6 | 9.7 | 0.23 | 2.29 | 2.26 | 73 | 1018.8 |
| 20260506222511 | 3 | 103 | 3.2 | 9.7 | 0.25 | 2.26 | 2.24 | 71 | 1018.9 |
| 20260506222007 | 3 | 111 | 3.2 | 8.0 | 0.30 | 2.26 | 2.24 | 70 | 1019.0 |
| 20260506221514 | 4 | 156 | 1.6 | 8.0 | 0.36 | 2.29 | 2.24 | 69 | 1018.9 |
| 20260506221007 | 4 | 161 | 1.6 | 8.0 | 0.36 | 2.26 | 2.21 | 69 | 1018.9 |
| 20260506220507 | 4 | 150 | 3.2 | 8.0 | 0.38 | 2.24 | 2.18 | 71 | 1019.0 |
| 20260506220024 | 4 | 128 | 1.6 | 6.4 | 0.43 | 2.24 | 2.18 | 70 | 1019.1 |
| 20260506215510 | 4 | 146 | 3.2 | 9.7 | 0.43 | 2.21 | 2.16 | 71 | 1019.2 |
| 20260506215011 | 4 | 187 | 3.2 | 9.7 | 0.48 | 2.21 | 2.13 | 71 | 1019.3 |
| 20260506214529 | 4 | 162 | 1.6 | 8.0 | 0.48 | 2.18 | 2.11 | 70 | 1019.3 |
| 20260506214004 | 3 | 135 | 1.6 | 12.9 | 0.48 | 2.16 | 2.08 | 73 | 1019.4 |
| 20260506213506 | 3 | 122 | 1.6 | 12.9 | 0.48 | 2.13 | 2.06 | 72 | 1019.5 |
| 20260506213018 | 3 | 217 | 4.8 | 12.9 | 0.51 | 2.11 | 2.03 | 71 | 1019.6 |
| 20260506212507 | 3 | 162 | 3.2 | 12.9 | 0.48 | 2.06 | 1.98 | 72 | 1019.7 |
| 20260506212015 | 4 | 151 | 3.2 | 8.0 | 0.48 | 2.01 | 1.93 | 76 | 1019.7 |
| 20260506211526 | 3 | 73 | 1.6 | 9.7 | 0.48 | 1.96 | 1.88 | 71 | 1019.6 |
| 20260506211010 | 3 | 95 | 1.6 | 9.7 | 0.53 | 1.93 | 1.85 | 72 | 1019.8 |
| 20260506210503 | 3 | 153 | 1.6 | 8.0 | 0.53 | 1.91 | 1.80 | 77 | 1019.8 |
| 20260506210016 | 3 | 136 | 1.6 | 9.7 | 0.56 | 1.85 | 1.75 | 75 | 1019.8 |
| 20260506205507 | 3 | 184 | 1.6 | 6.4 | 0.61 | 1.83 | 1.73 | 74 | 1019.9 |
| 20260506205010 | 3 | 98 | 3.2 | 9.7 | 0.61 | 1.75 | 1.65 | 77 | 1020.0 |
| 20260506204503 | 3 | 120 | 3.2 | 9.7 | 0.66 | 1.73 | 1.63 | 77 | 1020.0 |
| 20260506204002 | 2 | 195 | 1.6 | 6.4 | 0.71 | 1.70 | 1.60 | 81 | 1020.0 |
| 20260506203502 | 2 | 107 | 0.0 | 6.4 | 0.79 | 1.68 | 1.57 | 80 | 1020.1 |
| 20260506203006 | 3 | 195 | 1.6 | 6.4 | 0.84 | 1.65 | 1.52 | 79 | 1020.1 |
| 20260506202503 | 3 | 115 | 1.6 | 6.4 | 0.89 | 1.63 | 1.47 | 76 | 1020.3 |
| 20260506202007 | 3 | 147 | 1.6 | 9.7 | 0.89 | 1.60 | 1.45 | 77 | 1020.3 |
| 20260506201519 | 3 | 121 | 3.2 | 9.7 | 0.86 | 1.55 | 1.40 | 77 | 1020.3 |
| 20260506201007 | 3 | 161 | 1.6 | 9.7 | 0.81 | 1.47 | 1.32 | 81 | 1020.3 |
| 20260506200503 | 3 | 228 | 1.6 | 9.7 | 0.79 | 1.47 | 1.27 | 77 | 1020.3 |
| 20260506200003 | 3 | 163 | 1.6 | 4.8 | 0.74 | 1.40 | 1.19 | 79 | 1020.3 |
| 20260506195503 | 3 | 186 | 1.6 | 4.8 | 0.69 | 1.32 | 1.12 | 77 | 1020.3 |
| 20260506195004 | 3 | 167 | 1.6 | 8.0 | 0.64 | 1.24 | 1.04 | 79 | 1020.4 |
| 20260506194510 | 3 | 322 | 1.6 | 8.0 | 0.58 | 1.17 | 0.97 | 80 | 1020.4 |
| 20260506194008 | 2 | 109 | 1.6 | 6.4 | 0.53 | 1.09 | 0.89 | 74 | 1020.5 |
| 20260506193505 | 3 | 58 | 3.2 | 11.3 | 0.43 | 0.99 | 0.79 | 77 | 1020.5 |
| 20260506193020 | 3 | 68 | 4.8 | 11.3 | 0.36 | 0.89 | 0.69 | 74 | 1020.5 |
| 20260506192502 | 2 | 175 | 1.6 | 8.0 | 0.30 | 0.81 | 0.61 | 77 | 1020.6 |
| 20260506192006 | 2 | 121 | 3.2 | 8.0 | 0.28 | 0.76 | 0.56 | 80 | 1020.6 |
| 20260506191506 | 2 | 62 | 3.2 | 8.0 | 0.25 | 0.74 | 0.53 | 77 | 1020.7 |
| 20260506191004 | 2 | 32 | 4.8 | 9.7 | 0.25 | 0.71 | 0.51 | 74 | 1020.8 |
| 20260506190504 | 2 | 42 | 3.2 | 9.7 | 0.23 | 0.69 | 0.48 | 75 | 1020.8 |
| 20260506190011 | 2 | 73 | 4.8 | 9.7 | 0.23 | 0.69 | 0.46 | 74 | 1020.8 |
| 20260506185509 | 2 | 146 | 0.0 | 4.8 | 0.20 | 0.66 | 0.43 | 79 | 1020.8 |
| 20260506185007 | 3 | 56 | 1.6 | 4.8 | 0.20 | 0.64 | 0.41 | 73 | 1020.9 |
| 20260506184504 | 3 | 114 | 0.0 | 3.2 | 0.20 | 0.61 | 0.38 | 79 | 1020.9 |
| 20260506184003 | 2 | 158 | 1.6 | 4.8 | 0.18 | 0.61 | 0.36 | 81 | 1021.0 |
| 20260506183505 | 2 | 59 | 1.6 | 6.4 | 0.20 | 0.61 | 0.36 | 79 | 1021.0 |
| 20260506183008 | 2 | 148 | 1.6 | 6.4 | 0.18 | 0.58 | 0.33 | 82 | 1021.0 |
| 20260506182504 | 1 | 138 | 1.6 | 9.7 | 0.15 | 0.58 | 0.30 | 83 | 1021.2 |
| 20260506182008 | 1 | 347 | 1.6 | 9.7 | 0.15 | 0.56 | 0.28 | 86 | 1021.2 |
| 20260506181520 | 1 | 57 | 3.2 | 6.4 | 0.15 | 0.56 | 0.28 | 86 | 1021.2 |
| 20260506181009 | 1 | 46 | 3.2 | 12.9 | 0.13 | 0.56 | 0.25 | 85 | 1021.3 |
| 20260506180502 | 1 | 301 | 1.6 | 12.9 | 0.13 | 0.56 | 0.25 | 87 | 1021.3 |
| 20260506180005 | 1 | 347 | 3.2 | 9.7 | 0.13 | 0.56 | 0.23 | 88 | 1021.4 |
| 20260506175503 | 1 | 348 | 3.2 | 9.7 | 0.13 | 0.58 | 0.23 | 88 | 1021.3 |
| 20260506175003 | 1 | 340 | 3.2 | 6.4 | 0.10 | 0.58 | 0.20 | 88 | 1021.2 |
| 20260506174514 | 1 | 321 | 1.6 | 6.4 | 0.08 | 0.56 | 0.18 | 89 | 1021.2 |
| 20260506174008 | 1 | 346 | 1.6 | 6.4 | 0.08 | 0.56 | 0.18 | 92 | 1021.1 |
| 20260506173509 | 0 | 290 | 0.0 | 8.0 | 0.08 | 0.53 | 0.15 | 91 | 1021.2 |
| 20260506173031 | 0 | 333 | 1.6 | 9.7 | 0.08 | 0.56 | 0.15 | 91 | 1021.2 |
| 20260506172503 | 0 | 352 | 4.8 | 12.9 | 0.08 | 0.56 | 0.15 | 91 | 1021.2 |
| 20260506172006 | 0 | 19 | 1.6 | 12.9 | 0.05 | 0.53 | 0.13 | 92 | 1021.2 |
| 20260506171505 | 0 | 19 | 3.2 | 9.7 | 0.05 | 0.53 | 0.13 | 92 | 1021.2 |
| 20260506171004 | 0 | 342 | 3.2 | 9.7 | 0.08 | 0.53 | 0.13 | 92 | 1021.1 |
| 20260506170505 | 0 | 352 | 3.2 | 11.3 | 0.08 | 0.53 | 0.13 | 92 | 1021.1 |
| 20260506170016 | 0 | 347 | 6.4 | 14.5 | 0.05 | 0.51 | 0.10 | 92 | 1021.0 |
| 20260506165508 | 0 | 30 | 4.8 | 14.5 | 0.05 | 0.51 | 0.10 | 91 | 1021.0 |
| 20260506165007 | 0 | 347 | 4.8 | 14.5 | 0.05 | 0.51 | 0.10 | 92 | 1021.0 |
| 20260506164525 | 0 | 346 | 3.2 | 9.7 | 0.05 | 0.51 | 0.10 | 92 | 1021.0 |
| 20260506164005 | 0 | 17 | 4.8 | 14.5 | 0.05 | 0.53 | 0.10 | 92 | 1020.9 |
| 20260506163504 | 0 | 348 | 6.4 | 14.5 | 0.03 | 0.51 | 0.08 | 92 | 1020.7 |
| 20260506163008 | 0 | 352 | 4.8 | 9.7 | 0.03 | 0.51 | 0.08 | 92 | 1020.7 |
| 20260506162504 | 0 | 9 | 3.2 | 9.7 | 0.03 | 0.51 | 0.08 | 92 | 1020.6 |
| 20260506162009 | 0 | 350 | 3.2 | 9.7 | 0.03 | 0.51 | 0.08 | 93 | 1020.5 |
| 20260506161520 | 0 | 38 | 3.2 | 4.8 | 0.03 | 0.51 | 0.08 | 93 | 1020.4 |
| 20260506161010 | 0 | 5 | 1.6 | 4.8 | 0.00 | 0.51 | 0.05 | 92 | 1020.3 |
| 20260506160513 | 0 | 328 | 0.0 | 1.6 | 0.00 | 0.51 | 0.05 | 93 | 1020.3 |
| 20260506160006 | 0 | 327 | 0.0 | 3.2 | 0.00 | 0.51 | 0.05 | 93 | 1020.2 |
| 20260506155504 | 0 | 328 | 0.0 | 3.2 | 0.00 | 0.51 | 0.05 | 92 | 1020.2 |
| 20260506155006 | 0 | 329 | 0.0 | 3.2 | 0.00 | 0.51 | 0.05 | 93 | 1020.2 |
| 20260506154513 | 0 | 336 | 0.0 | 0.0 | 0.00 | 0.53 | 0.05 | 93 | 1020.3 |
| 20260506154008 | 0 | 328 | 0.0 | 0.0 | 0.03 | 0.53 | 0.05 | 93 | 1020.3 |
| 20260506153507 | 0 | 327 | 0.0 | 0.0 | 0.03 | 0.53 | 0.05 | 93 | 1020.3 |
| 20260506153022 | 0 | 325 | 0.0 | 0.0 | 0.03 | 0.56 | 0.05 | 93 | 1020.0 |
| 20260506152508 | 0 | 321 | 0.0 | 0.0 | 0.03 | 0.56 | 0.05 | 93 | 1020.0 |
| 20260506152004 | 0 | 317 | 0.0 | 0.0 | 0.03 | 0.56 | 0.05 | 93 | 1019.9 |
| 20260506151507 | 0 | 323 | 0.0 | 0.0 | 0.03 | 0.58 | 0.05 | 93 | 1020.0 |
| 20260506151004 | 0 | 328 | 0.0 | 0.0 | 0.03 | 0.58 | 0.05 | 93 | 1020.1 |
| 20260506150505 | 0 | 316 | 0.0 | 0.0 | 0.03 | 0.58 | 0.05 | 93 | 1020.0 |
| 20260506150018 | 0 | 340 | 0.0 | 0.0 | 0.03 | 0.61 | 0.05 | 94 | 1019.9 |
| 20260506145506 | 0 | 42 | 0.0 | 0.0 | 0.03 | 0.61 | 0.05 | 94 | 1019.9 |
| 20260506145011 | 0 | 315 | 0.0 | 0.0 | 0.03 | 0.61 | 0.05 | 93 | 1019.8 |
| 20260506144529 | 0 | 5 | 0.0 | 0.0 | 0.03 | 0.64 | 0.05 | 94 | 1019.8 |
| 20260506144004 | 0 | 5 | 0.0 | 0.0 | 0.00 | 0.61 | 0.03 | 94 | 1019.6 |
| 20260506143504 | 0 | 9 | 0.0 | 0.0 | 0.00 | 0.64 | 0.03 | 94 | 1019.6 |
| 20260506143022 | 0 | 11 | 0.0 | 0.0 | 0.00 | 0.64 | 0.03 | 94 | 1019.6 |
| 20260506142506 | 0 | 12 | 0.0 | 0.0 | 0.00 | 0.66 | 0.03 | 94 | 1019.5 |
| 20260506142008 | 0 | 13 | 0.0 | 0.0 | 0.00 | 0.66 | 0.03 | 95 | 1019.6 |
| 20260506141523 | 0 | 13 | 0.0 | 0.0 | 0.00 | 0.69 | 0.03 | 95 | 1019.4 |
| 20260506141011 | 0 | 14 | 0.0 | 0.0 | 0.00 | 0.69 | 0.03 | 94 | 1019.4 |
| 20260506140511 | 0 | 14 | 0.0 | 0.0 | 0.00 | 0.71 | 0.03 | 94 | 1019.4 |
| 20260506140005 | 0 | 14 | 0.0 | 0.0 | 0.00 | 0.71 | 0.03 | 95 | 1019.4 |
| 20260506135506 | 0 | 15 | 0.0 | 0.0 | 0.00 | 0.74 | 0.03 | 95 | 1019.3 |
| 20260506135008 | 0 | 15 | 0.0 | 0.0 | 0.00 | 0.74 | 0.03 | 95 | 1019.3 |
| 20260506134516 | 0 | 15 | 0.0 | 0.0 | 0.00 | 0.76 | 0.03 | 95 | 1019.4 |
| 20260506134008 | 0 | 15 | 0.0 | 0.0 | 0.00 | 0.76 | 0.03 | 95 | 1019.4 |
| 20260506133516 | 0 | 15 | 0.0 | 0.0 | 0.00 | 0.76 | 0.03 | 95 | 1019.3 |
| 20260506133026 | 0 | 15 | 0.0 | 0.0 | 0.00 | 0.76 | 0.03 | 95 | 1019.1 |
| 20260506132517 | 0 | 15 | 0.0 | 0.0 | 0.00 | 0.76 | 0.03 | 95 | 1019.1 |
| 20260506132005 | 0 | 15 | 0.0 | 0.0 | 0.00 | 0.79 | 0.03 | 95 | 1018.9 |
| 20260506131508 | 0 | 15 | 0.0 | 0.0 | 0.00 | 0.79 | 0.03 | 95 | 1018.8 |
| 20260506131004 | 0 | 15 | 0.0 | 0.0 | 0.00 | 0.79 | 0.03 | 95 | 1018.7 |
| 20260506130507 | 0 | 15 | 0.0 | 0.0 | 0.00 | 0.79 | 0.03 | 95 | 1018.7 |
| 20260506130020 | 0 | 16 | 0.0 | 0.0 | 0.00 | 0.79 | 0.03 | 95 | 1018.6 |
| 20260506125508 | 0 | 16 | 0.0 | 0.0 | 0.00 | 0.79 | 0.03 | 95 | 1018.4 |
| 20260506125010 | 0 | 16 | 0.0 | 0.0 | 0.00 | 0.79 | 0.03 | 95 | 1018.2 |
| 20260506124527 | 0 | 32 | 0.0 | 0.0 | 0.00 | 0.79 | 0.03 | 95 | 1018.2 |
| 20260506124007 | 0 | 32 | 0.0 | 0.0 | 0.00 | 0.79 | 0.03 | 95 | 1018.1 |
| 20260506123503 | 0 | 32 | 0.0 | 0.0 | 0.00 | 0.79 | 0.03 | 95 | 1018.2 |
| 20260506123015 | 0 | 32 | 0.0 | 0.0 | 0.00 | 0.81 | 0.03 | 95 | 1018.0 |
| 20260506122508 | 0 | 32 | 0.0 | 0.0 | 0.00 | 0.81 | 0.03 | 95 | 1018.0 |
| 20260506122007 | 0 | 32 | 0.0 | 0.0 | 0.00 | 0.81 | 0.03 | 95 | 1017.9 |
| 20260506121522 | 0 | 30 | 0.0 | 0.0 | 0.00 | 0.81 | 0.03 | 95 | 1018.0 |
| 20260506121011 | 0 | 30 | 0.0 | 0.0 | 0.00 | 0.81 | 0.03 | 95 | 1018.1 |
| 20260506120506 | 0 | 30 | 0.0 | 0.0 | 0.00 | 0.81 | 0.03 | 95 | 1018.1 |
| 20260506120014 | 0 | 30 | 0.0 | 0.0 | 0.00 | 0.81 | 0.03 | 95 | 1017.8 |
| 20260506115507 | 0 | 30 | 0.0 | 0.0 | 0.00 | 0.81 | 0.03 | 95 | 1017.7 |
| 20260506115007 | 0 | 19 | 0.0 | 0.0 | 0.00 | 0.84 | 0.03 | 95 | 1017.6 |
| 20260506114519 | 0 | 17 | 0.0 | 0.0 | 0.00 | 0.84 | 0.03 | 95 | 1017.7 |
| 20260506114007 | 0 | 13 | 0.0 | 0.0 | 0.00 | 0.84 | 0.03 | 95 | 1017.7 |
| 20260506113507 | 0 | 13 | 0.0 | 0.0 | 0.00 | 0.86 | 0.03 | 95 | 1017.7 |
| 20260506113005 | 0 | 13 | 0.0 | 0.0 | 0.00 | 0.86 | 0.03 | 95 | 1017.6 |
| 20260506112503 | 0 | 13 | 0.0 | 0.0 | 0.00 | 0.86 | 0.03 | 95 | 1017.6 |
| 20260506112003 | 0 | 13 | 0.0 | 0.0 | 0.00 | 0.89 | 0.03 | 95 | 1017.5 |
| 20260506111511 | 0 | 13 | 0.0 | 0.0 | 0.00 | 0.89 | 0.03 | 95 | 1017.5 |
| 20260506111006 | 0 | 13 | 0.0 | 0.0 | 0.00 | 0.89 | 0.03 | 95 | 1017.4 |
| 20260506110506 | 0 | 13 | 0.0 | 0.0 | 0.00 | 0.89 | 0.03 | 95 | 1017.3 |
| 20260506110024 | 0 | 13 | 0.0 | 0.0 | 0.00 | 0.89 | 0.03 | 95 | 1017.2 |
| 20260506105510 | 0 | 13 | 0.0 | 0.0 | 0.00 | 0.89 | 0.03 | 95 | 1017.3 |
| 20260506105005 | 0 | 329 | 0.0 | 0.0 | 0.00 | 0.91 | 0.03 | 95 | 1017.3 |
| 20260506104506 | 0 | 329 | 0.0 | 0.0 | 0.00 | 0.91 | 0.03 | 95 | 1017.3 |
| 20260506104003 | 0 | 329 | 0.0 | 0.0 | 0.00 | 0.91 | 0.03 | 95 | 1017.1 |
| 20260506103509 | 0 | 329 | 0.0 | 0.0 | 0.00 | 0.94 | 0.03 | 95 | 1017.1 |
| 20260506103014 | 0 | 329 | 0.0 | 0.0 | 0.00 | 0.94 | 0.03 | 95 | 1017.2 |
| 20260506102507 | 0 | 329 | 0.0 | 0.0 | 0.00 | 0.97 | 0.03 | 95 | 1017.2 |
| 20260506102010 | 0 | 329 | 0.0 | 0.0 | 0.00 | 0.97 | 0.03 | 95 | 1017.2 |
| 20260506101539 | 0 | 329 | 0.0 | 0.0 | 0.00 | 0.97 | 0.03 | 95 | 1017.2 |
| 20260506101009 | 0 | 329 | 0.0 | 0.0 | 0.00 | 0.97 | 0.03 | 95 | 1017.3 |
| 20260506100503 | 0 | 329 | 0.0 | 0.0 | 0.00 | 0.97 | 0.03 | 95 | 1017.4 |
| 20260506100011 | 0 | 329 | 0.0 | 0.0 | 0.00 | 0.97 | 0.03 | 95 | 1017.4 |
| 20260506095506 | 0 | 329 | 0.0 | 0.0 | 0.00 | 0.99 | 0.03 | 95 | 1017.4 |
| 20260506095007 | 0 | 337 | 0.0 | 0.0 | 0.00 | 0.99 | 0.03 | 95 | 1017.5 |
| 20260506094524 | 0 | 337 | 0.0 | 0.0 | 0.00 | 1.02 | 0.03 | 95 | 1017.5 |
| 20260506094008 | 0 | 337 | 0.0 | 0.0 | 0.00 | 1.04 | 0.03 | 95 | 1017.5 |
| 20260506093509 | 0 | 337 | 0.0 | 0.0 | 0.00 | 1.07 | 0.03 | 95 | 1017.6 |
| 20260506093038 | 0 | 337 | 0.0 | 0.0 | 0.00 | 1.09 | 0.03 | 95 | 1017.3 |
| 20260506092504 | 0 | 337 | 0.0 | 0.0 | 0.00 | 1.14 | 0.03 | 95 | 1017.3 |
| 20260506092011 | 0 | 337 | 0.0 | 0.0 | 0.03 | 1.19 | 0.03 | 95 | 1017.3 |
| 20260506091514 | 0 | 338 | 0.0 | 0.0 | 0.03 | 1.22 | 0.03 | 95 | 1017.3 |
| 20260506091005 | 0 | 327 | 0.0 | 0.0 | 0.03 | 1.22 | 0.03 | 95 | 1017.1 |
| 20260506090507 | 0 | 327 | 0.0 | 0.0 | 0.03 | 1.22 | 0.03 | 95 | 1017.3 |
| 20260506090026 | 0 | 329 | 0.0 | 0.0 | 0.03 | 1.22 | 0.03 | 95 | 1017.3 |
| 20260506085507 | 0 | 321 | 0.0 | 0.0 | 0.03 | 1.22 | 0.03 | 95 | 1017.3 |
| 20260506085007 | 0 | 315 | 0.0 | 0.0 | 0.03 | 1.22 | 0.03 | 95 | 1017.3 |
| 20260506084505 | 0 | 313 | 0.0 | 0.0 | 0.03 | 1.22 | 0.03 | 95 | 1017.4 |
| 20260506084004 | 0 | 318 | 0.0 | 0.0 | 0.03 | 1.22 | 0.03 | 95 | 1017.4 |
| 20260506083508 | 0 | 310 | 0.0 | 3.2 | 0.03 | 1.22 | 0.03 | 95 | 1017.3 |
| 20260506083017 | 0 | 315 | 0.0 | 3.2 | 0.03 | 1.22 | 0.03 | 95 | 1017.3 |
| 20260506082508 | 0 | 333 | 0.0 | 3.2 | 0.03 | 1.22 | 0.03 | 95 | 1017.4 |
| 20260506082011 | 0 | 320 | 0.0 | 3.2 | 0.00 | 1.19 | 0.00 | 95 | 1017.3 |
| 20260506081533 | 0 | 321 | 0.0 | 3.2 | 0.00 | 1.19 | 0.00 | 95 | 1017.3 |
| 20260506081007 | 0 | 310 | 0.0 | 3.2 | 0.00 | 1.19 | 0.00 | 95 | 1017.3 |
| 20260506080503 | 0 | 322 | 0.0 | 3.2 | 0.00 | 1.19 | 0.00 | 95 | 1017.3 |
| 20260506073511 | 0 | 321 | 1.6 | 3.2 | 0.00 | 1.22 | 0.00 | 95 | 1017.8 |
| 20260506073038 | 0 | 323 | 0.0 | 3.2 | 0.00 | 1.22 | 0.00 | 95 | 1017.5 |
| 20260506072504 | 0 | 360 | 1.6 | 3.2 | 0.00 | 1.22 | 0.00 | 95 | 1017.3 |
| 20260506072006 | 0 | 350 | 1.6 | 3.2 | 0.00 | 1.22 | 0.00 | 95 | 1017.3 |
| 20260506071514 | 0 | 344 | 1.6 | 3.2 | 0.00 | 1.22 | 0.00 | 95 | 1017.3 |
| 20260506071013 | 0 | 352 | 1.6 | 4.8 | 0.00 | 1.22 | 0.00 | 95 | 1017.3 |
| 20260506070508 | 0 | 326 | 0.0 | 4.8 | 0.00 | 1.22 | 0.00 | 95 | 1017.4 |
| 20260506062507 | 0 | 334 | 0.0 | 0.0 | 0.00 | 1.22 | 0.00 | 95 | 1017.1 |
| 20260506062009 | 0 | 334 | 0.0 | 0.0 | 0.00 | 1.22 | 0.00 | 95 | 1016.8 |
| 20260506061524 | 0 | 334 | 0.0 | 0.0 | 0.00 | 1.22 | 0.00 | 95 | 1016.8 |
| 20260506061010 | 0 | 333 | 0.0 | 0.0 | 0.00 | 1.22 | 0.00 | 95 | 1016.8 |
| 20260506060511 | 0 | 335 | 0.0 | 0.0 | 0.00 | 1.22 | 0.00 | 95 | 1016.8 |
| 20260506051007 | 0 | 271 | 0.0 | 0.0 | 0.03 | 1.22 | 1.22 | 95 | 1016.6 |
| 20260506050506 | 0 | 271 | 0.0 | 0.0 | 0.03 | 1.22 | 1.22 | 95 | 1016.6 |
| 20260506045012 | 0 | 271 | 0.0 | 0.0 | 0.03 | 1.22 | 1.22 | 95 | 1016.3 |
| 20260506044557 | 0 | 265 | 0.0 | 0.0 | 0.03 | 1.22 | 1.22 | 95 | 1016.2 |
| 20260506044006 | 0 | 265 | 0.0 | 0.0 | 0.03 | 1.22 | 1.22 | 95 | 1016.1 |
| 20260506043506 | 0 | 265 | 0.0 | 0.0 | 0.03 | 1.22 | 1.22 | 95 | 1016.3 |
| 20260506043021 | 0 | 265 | 0.0 | 0.0 | 0.03 | 1.22 | 1.22 | 95 | 1016.4 |
| 20260506042509 | 0 | 265 | 0.0 | 0.0 | 0.00 | 1.19 | 1.19 | 95 | 1016.5 |
| 20260506042016 | 0 | 265 | 0.0 | 0.0 | 0.00 | 1.19 | 1.19 | 95 | 1016.4 |
| 20260506041524 | 0 | 265 | 0.0 | 0.0 | 0.00 | 1.19 | 1.19 | 95 | 1016.4 |
| 20260506041012 | 0 | 303 | 0.0 | 0.0 | 0.00 | 1.19 | 1.19 | 95 | 1016.6 |
| 20260506040511 | 0 | 343 | 0.0 | 0.0 | 0.00 | 1.19 | 1.19 | 95 | 1016.4 |
| 20260506040010 | 0 | 344 | 0.0 | 1.6 | 0.00 | 1.19 | 1.19 | 95 | 1016.3 |
| 20260506035505 | 0 | 360 | 0.0 | 1.6 | 0.00 | 1.19 | 1.19 | 95 | 1016.1 |
| 20260506035006 | 0 | 338 | 0.0 | 0.0 | 0.00 | 1.19 | 1.19 | 95 | 1016.1 |
| 20260506034542 | 0 | 338 | 0.0 | 0.0 | 0.00 | 1.19 | 1.19 | 95 | 1016.3 |
| 20260506034008 | 0 | 338 | 0.0 | 0.0 | 0.00 | 1.19 | 1.19 | 95 | 1016.3 |
| 20260506033512 | 0 | 338 | 0.0 | 0.0 | 0.00 | 1.22 | 1.19 | 95 | 1016.3 |
| 20260506033032 | 0 | 338 | 0.0 | 0.0 | 0.00 | 1.22 | 1.19 | 95 | 1016.2 |
| 20260506032509 | 0 | 338 | 0.0 | 1.6 | 0.00 | 1.22 | 1.19 | 95 | 1016.2 |
| 20260506032007 | 0 | 338 | 0.0 | 3.2 | 0.00 | 1.22 | 1.19 | 95 | 1016.3 |
| 20260506031516 | 0 | 337 | 0.0 | 4.8 | 0.00 | 1.22 | 1.19 | 95 | 1016.1 |
| 20260506031007 | 0 | 342 | 1.6 | 4.8 | 0.00 | 1.24 | 1.19 | 95 | 1015.9 |
| 20260506030509 | 0 | 341 | 1.6 | 3.2 | 0.00 | 1.27 | 1.19 | 94 | 1015.8 |
| 20260506030026 | 0 | 345 | 0.0 | 3.2 | 0.00 | 1.30 | 1.19 | 94 | 1015.7 |
| 20260506025507 | 0 | 17 | 0.0 | 3.2 | 0.00 | 1.32 | 1.19 | 94 | 1015.6 |
| 20260506025011 | 0 | 337 | 1.6 | 3.2 | 0.00 | 1.42 | 1.19 | 94 | 1015.6 |
| 20260506024529 | 0 | 330 | 0.0 | 3.2 | 0.00 | 1.47 | 1.19 | 94 | 1015.5 |
| 20260506024009 | 0 | 322 | 0.0 | 3.2 | 0.00 | 1.55 | 1.19 | 94 | 1015.3 |
| 20260506023509 | 0 | 317 | 0.0 | 0.0 | 0.00 | 1.60 | 1.19 | 94 | 1015.3 |
| 20260506023020 | 0 | 317 | 0.0 | 0.0 | 0.00 | 1.65 | 1.19 | 94 | 1015.1 |
| 20260506022509 | 0 | 317 | 0.0 | 0.0 | 0.00 | 1.70 | 1.19 | 94 | 1015.0 |
| 20260506022011 | 0 | 317 | 0.0 | 1.6 | 0.00 | 1.73 | 1.19 | 94 | 1014.9 |
| 20260506021530 | 0 | 317 | 0.0 | 1.6 | 0.00 | 1.73 | 1.19 | 94 | 1014.8 |
| 20260506021010 | 0 | 327 | 0.0 | 1.6 | 0.00 | 1.73 | 1.19 | 94 | 1014.8 |
| 20260506020510 | 0 | 329 | 0.0 | 1.6 | 0.00 | 1.73 | 1.19 | 94 | 1014.9 |
| 20260506020028 | 0 | 342 | 0.0 | 1.6 | 0.00 | 1.73 | 1.19 | 94 | 1014.5 |
| 20260506015508 | 0 | 338 | 0.0 | 3.2 | 0.00 | 1.75 | 1.19 | 94 | 1014.5 |
| 20260506015011 | 0 | 346 | 0.0 | 3.2 | 0.00 | 1.75 | 1.19 | 94 | 1014.5 |
| 20260506014528 | 0 | 326 | 0.0 | 3.2 | 0.00 | 1.75 | 1.19 | 94 | 1014.6 |
| 20260506014008 | 0 | 335 | 0.0 | 3.2 | 0.00 | 1.75 | 1.19 | 94 | 1014.5 |
| 20260506013509 | 0 | 334 | 0.0 | 4.8 | 0.00 | 1.75 | 1.19 | 94 | 1014.6 |
| 20260506013029 | 0 | 336 | 0.0 | 4.8 | 0.00 | 1.75 | 1.19 | 94 | 1014.3 |
| 20260506012507 | 0 | 336 | 1.6 | 3.2 | 0.00 | 1.75 | 1.19 | 94 | 1014.1 |
| 20260506012013 | 0 | 350 | 0.0 | 3.2 | 0.00 | 1.75 | 1.19 | 94 | 1014.2 |
| 20260506011520 | 0 | 352 | 0.0 | 4.8 | 0.00 | 1.75 | 1.19 | 94 | 1014.4 |
| 20260506011009 | 0 | 352 | 0.0 | 4.8 | 0.00 | 1.75 | 1.19 | 94 | 1014.2 |
| 20260506010507 | 0 | 329 | 0.0 | 3.2 | 0.00 | 1.75 | 1.19 | 94 | 1014.1 |
| 20260506010027 | 0 | 340 | 0.0 | 3.2 | 0.00 | 1.75 | 1.19 | 94 | 1014.1 |
| 20260506005508 | 0 | 327 | 0.0 | 3.2 | 0.00 | 1.75 | 1.19 | 94 | 1014.2 |
| 20260506005010 | 0 | 346 | 0.0 | 3.2 | 0.00 | 1.75 | 1.19 | 94 | 1014.0 |
| 20260506004553 | 0 | 339 | 0.0 | 3.2 | 0.00 | 1.75 | 1.19 | 94 | 1014.0 |
| 20260506004007 | 0 | 344 | 0.0 | 3.2 | 0.00 | 1.75 | 1.19 | 94 | 1014.0 |
| 20260506003511 | 0 | 344 | 0.0 | 3.2 | 0.00 | 1.75 | 1.19 | 94 | 1014.0 |
| 20260506003036 | 0 | 342 | 0.0 | 3.2 | 0.00 | 1.75 | 1.19 | 94 | 1014.0 |
| 20260506002511 | 0 | 328 | 0.0 | 4.8 | 0.00 | 1.75 | 1.19 | 94 | 1014.2 |
| 20260506002003 | 0 | 342 | 0.0 | 4.8 | 0.00 | 1.75 | 1.19 | 94 | 1014.1 |
| 20260506001506 | 0 | 342 | 1.6 | 6.4 | 0.00 | 1.75 | 1.19 | 94 | 1014.1 |
| 20260506001004 | 0 | 331 | 1.6 | 6.4 | 0.00 | 1.75 | 1.19 | 94 | 1014.1 |
| 20260506000507 | 0 | 336 | 0.0 | 4.8 | 0.00 | 1.75 | 1.19 | 94 | 1013.9 |
| 20260506000014 | 0 | 352 | 1.6 | 4.8 | 0.00 | 1.75 | 1.19 | 94 | 1013.9 |
| 20260505235508 | 0 | 349 | 0.0 | 3.2 | 0.00 | 1.75 | 1.19 | 94 | 1014.0 |
| 20260505235009 | 0 | 345 | 0.0 | 3.2 | 0.00 | 1.75 | 1.19 | 94 | 1014.0 |
| 20260505234536 | 0 | 268 | 0.0 | 3.2 | 0.00 | 1.75 | 1.19 | 94 | 1013.8 |
| 20260505234004 | 0 | 234 | 0.0 | 4.8 | 0.00 | 1.75 | 1.19 | 94 | 1013.9 |
| 20260505233506 | 0 | 344 | 1.6 | 4.8 | 0.00 | 1.75 | 1.19 | 94 | 1013.9 |